Regional Weather Roundup
Issued by NWS

Home | Current Version | Previous Version | Graphics & Text | Print | Product List | Glossary On
Versions: 1 2 3 4 5 6 7 8 9 10 11 12 13 14 15 16 17 18 19 20 21 22 23 24 25 26 27 28 29 30 31 32 33 34 35 36 37 38 39 40 41 42 43 44 45 46 47 48 49 50
000
ASUS43 KMKX 302100
RWRWI

WISCONSIN REGIONAL WEATHER ROUNDUP
NATIONAL WEATHER SERVICE MILWAUKEE/SULLIVAN WI
400 PM CDT SUN AUG 30 2015

NOTE: "FAIR" INDICATES FEW OR NO CLOUDS BELOW 12,000 FEET WITH NO
SIGNIFICANT WEATHER AND/OR OBSTRUCTIONS TO VISIBILITY.

WIZ001-002-006>008-014>016-023>028-302200-
NORTHWEST WISCONSIN

CITY           SKY/WX    TMP DP  RH WIND       PRES   REMARKS
SUPERIOR ARPT  SUNNY     83  69  64 SW10      29.86F HX  86
ASHLAND        SUNNY     82  64  54 SW16G23   29.89F HX  83
HAYWARD        SUNNY     78  62  57 SW13      29.94F HX  80
SIREN          SUNNY     81  64  56 S8        29.93F HX  82
CUMBERLAND     SUNNY     73  63  68 S9        29.96F
RICE LAKE      SUNNY     75  63  66 S12       29.98F
CHETEK         SUNNY    N/A N/A N/A S7        29.97F
LADYSMITH      SUNNY     78  65  64 S10       29.99F HX  80
EAU CLAIRE     NOT AVBL
MENOMONIE      SUNNY     78  65  65 S8        29.98F HX  80
NEW RICHMOND   SUNNY     79  64  60 S10       29.96F HX  80
OSCEOLA        SUNNY     79  65  62 S10       29.96F HX  81
$$

WIZ003>005-009-010-017-018-302200-
NORTH CENTRAL WISCONSIN

CITY           SKY/WX    TMP DP  RH WIND       PRES   REMARKS
MANITOWISH WTR MOSUNNY   78  64  62 SW9       29.97S HX  80
ARBOR VITAE    SUNNY     78  65  65 SW10G18   29.98S
WOODRUFF       SUNNY     78  65  65 SW10G18   29.98S
RHINELANDER    SUNNY     77  62  59 SW8       30.00
EAGLE RIVER    SUNNY     76  60  58 SW10      29.98F
LAND O LAKES   MOSUNNY   78  62  56 SW8       29.98S HX  80
PHILLIPS       SUNNY     77  65  65 SW9G17    29.97F
TOMAHAWK       MOSUNNY   76  63  63 S5        30.00F
MEDFORD        SUNNY     74  64  72 S10       30.01F
MERRILL        MOSUNNY   77  65  66 SW9       30.00F
$$

WIZ029-030-035-036-043>047-302200-
CENTRAL WISCONSIN

CITY           SKY/WX    TMP DP  RH WIND       PRES   REMARKS
WAUSAU         MOSUNNY   77  63  61 S9        29.99F
MOSINEE        SUNNY     75  64  69 SW9       30.02F
MARSHFIELD     SUNNY     77  62  59 S8        30.01F
STEVENS POINT  SUNNY     74  62  64 SW10      30.02F
WAUPACA        SUNNY     77  64  64 SW8       30.02F
WAUTOMA        NOT AVBL
WISC RAPIDS    SUNNY     76  62  62 S9        30.02F
CAMP DOUGLAS   NOT AVBL
$$

WIZ011>013-019>022-031-037>040-048>050-302200-
NORTHEAST WISCONSIN

CITY           SKY/WX    TMP DP  RH WIND       PRES   REMARKS
ANTIGO         MOSUNNY   75  63  67 SW9       30.01F
SHAWANO        SUNNY     76  64  64 SW7       30.00F
OCONTO         SUNNY     75  65  69 SW9       29.99F
STURGEON BAY   SUNNY     73  63  68 SW8       30.02F
GREEN BAY      MOSUNNY   74  65  73 S9        30.01S
MANITOWOC      NOT AVBL
APPLETON       MOSUNNY   72  61  68 SW8       30.01F
CLINTONVILLE   SUNNY     73  61  64 SW8       30.01S
OSHKOSH        SUNNY     73  63  70 S7        30.02F
$$

WIZ032>034-041-042-053>061-302200-
SOUTHWEST WISCONSIN

CITY           SKY/WX    TMP DP  RH WIND       PRES   REMARKS
LA CROSSE      PTSUNNY   75  64  68 S7        30.00F
SPARTA         PTSUNNY   75  61  62 S5        30.02F
VIROQUA          N/A     73  63  71 SW8       30.05F
BOSCOBEL       MOSUNNY   76  63  64 SW7       30.03F
PRAIRIE DU CHI MOSUNNY   74  61  63 S5        30.03F
PLATTEVILLE    MOSUNNY   73  66  78 SW5       30.05F
$$

WIZ056-057-062-063-064-067-068-302200-
SOUTH CENTRAL WISCONSIN

CITY           SKY/WX    TMP DP  RH WIND       PRES   REMARKS
REEDSBURG      MOSUNNY   74  65  71 SW6       30.03F
BARABOO/DELLS  MOSUNNY   75  62  62 SW8       30.04S
LONE ROCK      NOT AVBL
MINERAL POINT  SUNNY     75  64  69 SW3       30.05F
MADISON        PTSUNNY   73  62  68 VRB3      30.03F
MIDDLETON      SUNNY     75  61  61 SW3       30.04F
WATERTOWN      PTSUNNY   72  65  80 S6        30.04F
MONROE         SUNNY     72  61  68 CALM      30.05F
JANESVILLE     MOSUNNY   75  63  64 CALM        N/A
$$

WIZ051-052-058>065-066-070>072-302200-
SOUTHEAST WISCONSIN

CITY           SKY/WX    TMP DP  RH WIND       PRES   REMARKS
MILWAUKEE      CLOUDY    70  62  76 SE9       30.03F
WAUKESHA       MOSUNNY   72  63  73 SW5       30.05F
MILWAUKEE/TIMM MOSUNNY   73  61  64 SW7       30.04F
RACINE         MOSUNNY   70  62  76 SE7       30.05F
BURLINGTON     SUNNY     73  61  67 SW5       30.04F
KENOSHA        PTSUNNY   72  64  76 SE6       30.04F
FOND DU LAC    MOSUNNY   73  63  70 SW8       30.03F
SHEBOYGAN      MOSUNNY   73  64  73 SW7       30.02F
WEST BEND      PTSUNNY   72  61  68 CALM      30.03F
JUNEAU         PTSUNNY   71  62  74 SW7       30.05F
$$

LSZ147-162-302200-
LAKE SUPERIOR

STATION/POSITION TIME  TEMP    WIND        PRES    WAVE
                       AIR SEA DIR/SP/G            HT/PER
                 (UTC) (F)     (DEG/KT/KT) (MB)    (FT/S)
W MID LAKE BUOY  1950   59 55  230/  6/  6 1011.6F   1/ 3
DEVILS ISLAND    2000   64     230/  8/ 10 1011.5F
PORT WING        2000   81     210/  9/ 14 1011.5F
SAXON HARBOR     2040   84     200/  6/ 12 1011.5F
$$

LMZ867-665-643>646-302200-
LAKE MICHIGAN

STATION/POSITION TIME  TEMP    WIND        PRES    WAVE
                       AIR SEA DIR/SP/G            HT/PER
                 (UTC) (F)     (DEG/KT/KT) (MB)    (FT/S)
CHAMBERS ISLAND  2000   70     180/  9/ 16 1015.2F
N MID LAKE BUOY  1950   65 65  200/ 16/ 17 1015.7F   2/ 3
NORTHPORT PIER   2000   69     160/  7/ 13 1015.6F
SHEBOYGAN LAKESH 2000   60     170/ 11/ 11 1017.4F
PORT WASHINGTON  2000   65     190/  3/  5 1017.9
ATWATER BUOY     2000   60 53  140/  2/  2 1018.8F
MILWAUKEE LAKESH 2000   60     190/  2/  2   N/A
S MID LAKE BUOY  1950   66 69  340/  6/  6 1017.7F   1
KENOSHA   LAKESH 2000   62     130/  5/  6 1017.3F
$$

TC  - TEMPERATURE IN CELSIUS
VSB - VISIBILITY IN STATUTE MILES
WCI - WIND CHILL INDEX
HX  - HEAT INDEX



USA.gov is the U.S. government's official web portal to all federal, state and local government web resources and services.